This demonstration page uses our WeatherBlox Daily Observations layout. Learn more.

Left ArrowRight Arrow

39.29038, -76.61219

Hourly Observations for April 30, 2022

Temp ( °F °C ) Dew Point ( °F °C ) Humidity (%) Winds ( mph kmh ) Pressure ( in mb ) Visibility ( mi km ) Precip ( " mm )
12:54 am 00:54 Mostly Clear 41 5 30 -1.1 65 65 W 3 6 30.16 1021 10 16 0.00 0.00
1:54 am 01:54 Mostly Clear 40 4.4 30 -1.1 68 68 VRB 3 6 30.18 1022 10 16 0.00 0.00
2:54 am 02:54 Mostly Clear 49 9.4 18 -7.8 29 29 NNE 8 13 30.17 1022 10 16 0.00 0.00
3:54 am 03:54 Mostly Clear 48 8.9 15 -9.4 27 27 N 5 7 30.17 1022 10 16 0.00 0.00
4:54 am 04:54 Mostly Clear 45 7.2 18 -7.8 34 34 N 3 6 30.18 1022 10 16 0.00 0.00
5:54 am 05:54 Mostly Clear 41 5 21 -6.1 45 45 Calm 30.18 1022 10 16 0.00 0.00
6:54 am 06:54 Mostly Sunny 41 5 23 -5 49 49 VRB 5 7 30.20 1023 10 16 0.00 0.00
7:54 am 07:54 Mostly Sunny 50 10 22 -5.6 33 33 VRB 3 6 30.20 1023 10 16 0.00 0.00
8:54 am 08:54 Sunny 55 12.8 19 -7.2 24 24 VRB 6 9 30.20 1023 10 16 0.00 0.00
9:54 am 09:54 Sunny 57 13.9 16 -8.9 20 20 undefined N/A 30.20 1023 10 16 0.00 0.00
10:54 am 10:54 Mostly Sunny 60 15.6 16 -8.9 18 18 ENE 6 9 30.19 1022 10 16 0.00 0.00
11:54 am 11:54 Mostly Cloudy 61 16.1 17 -8.3 18 18 Calm 30.17 1022 10 16 0.00 0.00
12:54 pm 12:54 Mostly Cloudy 65 18.3 20 -6.7 18 18 NE 6 9 30.15 1021 10 16 0.00 0.00
1:54 pm 13:54 Mostly Cloudy 68 20 24 -4.4 19 19 SW 7 11 30.12 1020 10 16 0.00 0.00
2:54 pm 14:54 Mostly Cloudy 69 20.6 24 -4.4 18 18 undefined N/A 30.09 1019 10 16 0.00 0.00
3:54 pm 15:54 Mostly Cloudy 71 21.7 25 -3.9 18 18 VRB 5 7 30.07 1018 10 16 0.00 0.00
4:54 pm 16:54 Mostly Cloudy 70 21.1 27 -2.8 20 20 W 7 11 30.06 1018 10 16 0.00 0.00
5:54 pm 17:54 Mostly Cloudy 66 18.9 28 -2.2 24 24 SSE 9 15 30.06 1018 10 16 0.00 0.00
6:54 pm 18:54 Mostly Cloudy 64 17.8 27 -2.8 25 25 S 8 13 30.07 1018 10 16 0.00 0.00
7:54 pm 19:54 Mostly Cloudy 61 16.1 28 -2.2 29 29 SSE 5 7 30.08 1019 10 16 0.00 0.00
8:54 pm 20:54 Partly Cloudy 58 14.4 29 -1.7 33 33 Calm 30.09 1019 10 16 0.00 0.00
9:54 pm 21:54 Partly Cloudy 56 13.3 31 -0.6 39 39 Calm 30.09 1019 10 16 0.00 0.00
10:54 pm 22:54 Partly Cloudy 51 10.6 32 0 48 48 Calm 30.09 1019 10 16 0.00 0.00
11:54 pm 23:54 Partly Cloudy 47 8.3 34 1.1 61 61 W 3 6 30.10 1019 10 16 0.00 0.00

Powered by AerisWeather